Location: Costa Valle Imagna
(45.8000°N, 9.5000°E)
Time: 19:43:45
(UTC+00:00)

Okean O Rocket - Pass Details

Date: 17 February 2020
Orbit: 622 x 645 km, 98.2° (Epoch: 03 April)

Event Time Altitude Azimuth Distance (km) Brightness Sun altitude
Rises 04:56:06 0° 17° (NNE) 2,937 5.2 -15.6°
Reaches altitude 10° 04:58:21 10° 21° (NNE) 2,021 4.4 -15.2°
Maximum altitude 05:02:41 58° 101° (E) 736 2.3 -14.5°
Drops below altitude 10° 05:06:57 10° 181° (S) 1,993 4.2 -13.7°
Sets 05:09:09 0° 185° (S) 2,892 5.0 -13.4°
